Temp
74 78 80 81 81 81 80 81 81 81 81 83 83 83 83 83 83 83 83 83 83 83 83 83 83 83 83 83 83 83 83 83 83 83 82 82 82 81 82 82 81 89 82
81 80 81 82 82 81 81 81 81 82 83 83 83 83 83 83 83 83 83 83 83 83 83 83 83 83 83 83 83 83 82 82 82 82 83 82 82 82 82 81 82 85 82
85 85 84 81 82 82 81 81 82 83 83 83 83 83 83 83 83 83 83 83 83 83 83 83 83 83 83 83 83 83 82 82 83 82 82 88 88 82 82 82 82 82 81
86 86 86 80 82 82 82 82 83 83 83 83 83 83 83 83 83 83 83 83 83 83 83 83 83 83 83 83 83 83 82 82 83 82 87 87 89 82 82 82 81 81 81
84 85 85 81 82 82 82 83 83 83 83 83 83 83 84 83 83 83 83 83 83 83 83 83 83 83 83 83 83 83 82 82 82 83 85 86 87 84 82 81 81 81 82
85 86 83 82 83 82 82 83 83 83 83 83 83 84 84 84 84 84 83 83 83 83 83 83 83 83 83 83 83 83 82 82 81 86 86 85 86 82 82 82 81 81 81
87 87 85 82 83 83 83 83 83 84 83 83 84 84 84 84 84 83 83 83 83 83 83 84 83 83 83 83 83 83 83 83 87 85 85 85 86 82 82 82 82 81 81
87 87 87 83 83 83 84 84 83 84 84 83 83 84 83 83 83 83 83 83 83 84 84 84 84 83 83 83 82 83 83 83 87 87 86 85 81 82 82 82 82 81 81
88 87 86 86 85 84 84 84 84 84 83 83 83 83 83 83 83 83 83 83 84 84 85 85 84 84 84 84 84 83 83 84 88 89 88 87 79 82 82 82 82 81 81
87 86 85 85 87 86 87 84 84 83 83 83 83 83 83 83 83 84 83 83 84 84 85 85 84 84 84 84 84 84 84 84 89 89 90 89 79 82 83 82 81 81 81
83 85 87 86 86 85 86 86 84 83 83 83 84 83 85 90 87 87 84 82 83 84 85 85 84 85 84 84 83 84 83 93 91 92 91 79 79 82 83 82 82 81 81
82 83 86 86 86 85 87 86 86 87 89 87 87 86 87 86 86 86 84 82 83 83 84 84 83 84 86 91 91 86 92 90 92 91 91 78 79 81 83 83 82 81 81
83 84 85 84 85 85 85 85 86 87 87 87 85 85 85 86 86 87 87 89 88 86 90 89 89 92 87 89 89 90 90 91 93 92 88 78 79 81 82 82 82 81 81
82 83 85 84 83 83 85 86 86 86 86 87 87 84 84 85 85 85 86 87 85 89 85 87 89 87 88 87 87 87 89 90 93 92 89 79 79 81 82 83 82 82 81
81 83 83 83 82 83 82 85 85 85 86 86 86 86 86 86 84 82 84 84 83 87 87 83 86 86 86 87 87 86 87 87 88 92 91 80 80 80 82 83 83 82 82
82 83 84 83 83 83 82 82 83 85 86 86 86 87 83 85 85 78 84 84 82 87 87 84 82 82 85 85 86 86 85 86 86 86 91 91 80 80 82 83 83 83 82
84 85 84 83 84 82 82 83 84 86 86 86 86 85 84 81 84 80 83 84 85 86 83 84 82 85 83 85 85 86 87 85 86 85 86 88 89 81 81 82 82 82 82
84 83 84 87 85 83 83 84 85 86 86 85 81 85 84 83 83 83 84 82 86 84 85 82 83 84 84 85 84 85 85 85 85 84 85 86 89 90 84 81 81 82 82
84 83 83 84 85 83 82 84 84 83 85 86 86 82 84 84 83 84 81 82 79 84 80 84 85 82 82 83 84 85 84 83 84 87 83 84 85 87 89 83 79 80 83
86 84 83 85 83 83 84 82 83 84 85 86 85 86 84 84 85 82 83 82 83 82 83 84 80 82 81 81 82 83 83 85 84 85 83 85 84 84 86 84 86 88 79
85 84 83 82 83 83 82 82 83 83 85 84 86 84 84 84 84 84 83 81 82 83 83 81 82 79 82 80 78 82 83 83 82 84 85 84 82 83 82 83 85 87 89
84 83 82 82 83 82 84 83 85 84 85 85 86 84 84 85 84 83 83 83 82 82 79 80 79 80 80 79 76 75 76 79 83 83 83 83 81 83 82 82 81 81 82
83 82 82 82 83 82 83 83 82 82 82 82 83 84 84 84 84 82 82 83 80 82 82 80 79 76 77 79 76 76 74 74 76 82 80 82 79 81 82 80 80 79 78
85 85 84 83 82 83 82 82 80 82 82 84 84 84 84 83 83 83 82 81 80 82 79 80 80 78 76 76 78 78 76 75 73 74 81 82 82 80 78 80 80 78 77
86 86 85 83 82 83 82 82 82 81 84 84 82 80 80 80 82 82 81 80 79 82 79 78 76 76 78 78 77 78 76 77 72 74 73 77 82 81 81 81 81 80 79
87 86 85 82 81 82 81 81 80 81 81 81 80 80 80 81 81 80 80 79 79 79 78 78 77 76 76 77 78 76 77 76 76 75 72 73 73 79 80 81 81 81 81
MSLP
1015.67 1015.49 1015.27 1015.26 1015.69 1015.99 1016.43 1016.76 1017.02 1017.13 1017.27 1017.39 1017.77 1017.95 1018.12 1018.12 1018.28 1018.61 1018.47 1018.57 1018.63 1018.51 1018.64 1018.75 1018.73 1018.70 1018.61 1018.64 1018.64 1018.66 1018.72 1018.84 1018.91 1018.88 1018.94 1019.08 1019.12 1019.17 1019.26 1019.33 1019.38 1018.79 1019.36
1015.59 1015.78 1015.66 1015.90 1016.26 1016.55 1016.86 1016.98 1017.12 1017.13 1017.43 1017.69 1018.00 1018.24 1018.20 1018.33 1018.66 1018.59 1018.66 1018.74 1018.91 1018.80 1018.89 1019.00 1018.98 1018.95 1018.86 1018.88 1018.91 1018.94 1018.97 1019.05 1018.96 1019.02 1019.06 1019.20 1019.26 1019.37 1019.41 1019.52 1019.50 1019.31 1019.52
1015.66 1016.00 1016.15 1016.34 1016.50 1016.78 1017.09 1017.27 1017.41 1017.48 1017.78 1017.98 1018.23 1018.43 1018.46 1018.52 1018.70 1018.84 1018.88 1019.03 1019.04 1019.01 1019.07 1019.17 1019.21 1019.21 1019.06 1019.08 1019.15 1019.09 1019.12 1019.21 1019.11 1019.22 1019.25 1019.02 1018.83 1019.47 1019.52 1019.57 1019.65 1019.68 1019.74
1015.68 1016.04 1016.23 1016.63 1016.72 1016.94 1017.25 1017.44 1017.52 1017.73 1018.10 1018.32 1018.41 1018.58 1018.81 1018.89 1018.90 1019.00 1019.08 1019.26 1019.22 1019.26 1019.25 1019.36 1019.39 1019.36 1019.25 1019.25 1019.29 1019.27 1019.35 1019.21 1019.26 1019.35 1019.17 1019.14 1018.96 1019.54 1019.65 1019.75 1019.85 1019.89 1020.05
1016.10 1016.35 1016.59 1016.91 1017.01 1017.20 1017.40 1017.67 1017.90 1018.04 1018.37 1018.54 1018.72 1018.81 1019.04 1019.03 1019.07 1019.23 1019.39 1019.45 1019.53 1019.47 1019.53 1019.57 1019.57 1019.46 1019.33 1019.33 1019.33 1019.43 1019.36 1019.40 1019.35 1019.31 1019.24 1019.30 1019.31 1019.61 1019.77 1019.93 1020.01 1020.18 1020.08
1016.19 1016.50 1016.99 1017.17 1017.33 1017.54 1017.69 1017.99 1018.10 1018.39 1018.47 1018.70 1018.81 1018.98 1019.15 1019.15 1019.30 1019.44 1019.60 1019.64 1019.68 1019.69 1019.73 1019.76 1019.66 1019.55 1019.47 1019.46 1019.46 1019.40 1019.48 1019.47 1019.50 1019.28 1019.40 1019.55 1019.39 1019.82 1019.93 1020.03 1020.21 1020.41 1020.45
1016.14 1016.58 1017.00 1017.33 1017.44 1017.62 1017.86 1018.08 1018.28 1018.49 1018.67 1018.88 1019.02 1019.17 1019.25 1019.32 1019.52 1019.63 1019.68 1019.73 1019.78 1019.75 1019.79 1019.83 1019.69 1019.62 1019.57 1019.50 1019.54 1019.43 1019.37 1019.36 1019.19 1019.29 1019.34 1019.41 1019.50 1019.90 1020.07 1020.18 1020.36 1020.52 1020.59
1016.21 1016.57 1017.01 1017.55 1017.67 1017.84 1018.03 1018.22 1018.46 1018.64 1018.87 1018.99 1019.13 1019.25 1019.31 1019.38 1019.52 1019.62 1019.69 1019.69 1019.70 1019.71 1019.66 1019.68 1019.67 1019.68 1019.57 1019.41 1019.39 1019.41 1019.35 1019.33 1019.07 1019.19 1019.37 1019.43 1019.80 1019.97 1020.13 1020.29 1020.44 1020.59 1020.72
1016.33 1016.67 1017.15 1017.37 1017.72 1017.95 1018.16 1018.37 1018.55 1018.79 1018.97 1019.13 1019.24 1019.32 1019.45 1019.61 1019.71 1019.78 1019.75 1019.69 1019.62 1019.65 1019.59 1019.56 1019.53 1019.49 1019.46 1019.37 1019.24 1019.29 1019.26 1019.18 1019.07 1019.07 1019.15 1019.42 1019.93 1020.02 1020.15 1020.33 1020.49 1020.71 1020.88
1016.61 1016.87 1017.16 1017.42 1017.65 1017.89 1018.20 1018.52 1018.71 1018.97 1019.15 1019.32 1019.41 1019.55 1019.67 1019.74 1019.76 1019.76 1019.78 1019.74 1019.68 1019.59 1019.55 1019.52 1019.48 1019.42 1019.33 1019.29 1019.14 1019.24 1019.19 1018.97 1018.84 1018.88 1019.05 1019.26 1019.93 1019.98 1019.94 1020.29 1020.52 1020.72 1020.90
1016.92 1017.02 1017.11 1017.44 1017.75 1018.00 1018.22 1018.51 1018.86 1019.10 1019.18 1019.33 1019.44 1019.58 1019.64 1019.48 1019.57 1019.58 1019.71 1019.73 1019.68 1019.52 1019.44 1019.36 1019.31 1019.29 1019.28 1019.23 1019.14 1019.14 1019.12 1018.61 1018.68 1018.67 1018.94 1019.45 1019.78 1019.84 1019.81 1020.08 1020.42 1020.57 1020.80
1016.69 1017.06 1017.17 1017.42 1017.74 1018.09 1018.18 1018.55 1018.78 1018.89 1018.95 1019.18 1019.35 1019.49 1019.44 1019.52 1019.56 1019.70 1019.59 1019.71 1019.55 1019.45 1019.32 1019.23 1019.22 1019.22 1019.07 1018.93 1018.94 1018.99 1018.65 1018.67 1018.59 1018.69 1018.67 1019.39 1019.57 1019.59 1019.69 1019.92 1020.15 1020.38 1020.63
1016.57 1016.93 1017.20 1017.46 1017.80 1017.96 1018.18 1018.58 1018.68 1018.81 1019.02 1019.22 1019.48 1019.50 1019.58 1019.56 1019.50 1019.48 1019.34 1019.30 1019.31 1019.30 1019.01 1018.94 1018.85 1018.75 1018.86 1018.87 1018.86 1018.70 1018.71 1018.65 1018.50 1018.54 1018.61 1019.04 1019.25 1019.40 1019.56 1019.78 1020.04 1020.26 1020.46
1016.47 1016.77 1017.04 1017.36 1017.76 1018.01 1018.21 1018.39 1018.54 1018.65 1018.92 1019.02 1019.15 1019.47 1019.55 1019.48 1019.43 1019.39 1019.34 1019.26 1019.33 1019.02 1019.15 1019.05 1018.84 1018.93 1018.86 1019.01 1018.94 1018.76 1018.63 1018.52 1018.34 1018.39 1018.43 1018.83 1018.90 1019.07 1019.20 1019.51 1019.65 1019.99 1020.25
1016.21 1016.54 1016.90 1017.24 1017.64 1017.95 1018.26 1018.28 1018.40 1018.57 1018.66 1018.84 1019.03 1019.16 1019.29 1019.26 1019.27 1019.47 1019.21 1019.11 1019.01 1019.09 1018.97 1019.07 1018.96 1018.84 1018.82 1018.81 1018.87 1018.82 1018.59 1018.57 1018.49 1018.24 1018.20 1018.64 1018.69 1018.78 1018.88 1019.14 1019.33 1019.59 1019.97
1015.98 1016.22 1016.67 1017.07 1017.32 1017.67 1017.88 1018.19 1018.23 1018.38 1018.40 1018.63 1018.71 1018.73 1019.08 1019.11 1019.03 1019.43 1019.03 1018.88 1018.87 1018.92 1018.90 1018.89 1018.90 1018.93 1018.80 1018.71 1018.60 1018.75 1018.77 1018.58 1018.49 1018.47 1018.06 1018.04 1018.42 1018.47 1018.58 1018.72 1018.88 1019.15 1019.41
1015.55 1015.99 1016.30 1016.67 1016.94 1017.34 1017.55 1017.84 1018.00 1018.06 1018.24 1018.30 1018.36 1018.57 1018.68 1018.87 1018.69 1018.85 1018.60 1018.68 1018.57 1018.76 1019.00 1018.88 1018.93 1018.74 1018.84 1018.63 1018.63 1018.46 1018.44 1018.57 1018.37 1018.32 1018.13 1017.91 1017.88 1018.18 1018.25 1018.27 1018.44 1018.69 1018.92
1015.17 1015.56 1016.09 1016.34 1016.58 1016.98 1017.11 1017.39 1017.64 1017.84 1017.96 1018.09 1018.18 1018.30 1018.29 1018.27 1018.36 1018.41 1018.32 1018.50 1018.59 1018.85 1018.78 1018.74 1018.89 1018.85 1018.76 1018.75 1018.56 1018.32 1018.18 1018.22 1018.21 1018.29 1018.06 1017.89 1017.69 1017.61 1017.83 1018.06 1018.11 1018.13 1018.35
1014.73 1015.24 1015.57 1015.98 1016.18 1016.46 1016.78 1017.08 1017.42 1017.66 1017.72 1017.65 1017.66 1017.83 1017.82 1017.94 1017.94 1018.06 1018.04 1018.17 1018.66 1018.57 1018.75 1018.77 1018.85 1018.98 1018.83 1018.72 1018.56 1018.28 1018.15 1018.16 1018.09 1017.94 1018.09 1017.96 1017.75 1017.62 1017.39 1017.60 1017.95 1017.91 1017.93
1014.37 1014.88 1015.33 1015.64 1015.98 1016.30 1016.57 1016.98 1017.21 1017.32 1017.29 1017.38 1017.40 1017.42 1017.49 1017.50 1017.63 1017.75 1017.74 1018.03 1018.43 1018.51 1018.69 1018.91 1019.09 1019.16 1019.11 1018.93 1018.68 1018.40 1018.36 1018.32 1018.07 1018.03 1018.06 1018.03 1018.04 1017.96 1017.71 1017.70 1017.51 1017.28 1017.86
1013.95 1014.45 1014.85 1015.25 1015.50 1016.09 1016.43 1016.63 1016.71 1016.65 1016.85 1017.01 1016.95 1017.12 1017.31 1017.36 1017.47 1017.53 1017.70 1018.07 1018.33 1018.50 1018.79 1019.11 1019.18 1019.18 1018.94 1019.08 1018.89 1018.28 1018.42 1018.53 1018.33 1018.17 1018.03 1018.10 1018.26 1018.29 1018.22 1017.98 1017.63 1017.48 1017.41
1013.21 1013.64 1014.25 1014.66 1015.05 1015.52 1015.82 1016.08 1016.21 1016.44 1016.63 1016.60 1016.68 1016.93 1017.08 1017.18 1017.30 1017.43 1017.64 1017.97 1018.22 1018.51 1018.86 1019.09 1019.35 1019.12 1019.12 1019.30 1018.94 1018.98 1018.22 1018.33 1018.43 1018.42 1018.40 1018.29 1018.33 1018.16 1018.26 1018.32 1018.26 1018.14 1017.93
1012.48 1013.06 1013.53 1013.98 1014.41 1014.87 1015.38 1015.97 1016.28 1016.45 1016.60 1016.63 1016.75 1016.82 1016.76 1016.98 1017.13 1017.43 1017.71 1017.83 1018.32 1018.42 1018.56 1018.97 1019.29 1019.52 1019.16 1019.33 1019.48 1019.16 1018.48 1018.15 1018.40 1018.38 1018.44 1018.39 1018.37 1018.15 1018.08 1018.26 1018.43 1018.61 1018.62
1011.54 1012.19 1012.78 1013.33 1013.82 1014.28 1014.85 1015.27 1015.52 1015.67 1015.82 1015.90 1016.25 1016.51 1016.67 1016.88 1017.08 1017.36 1017.70 1017.96 1018.11 1018.11 1018.55 1018.77 1019.01 1019.23 1019.35 1019.07 1019.38 1019.53 1019.52 1019.34 1018.73 1018.20 1018.30 1018.28 1018.38 1018.41 1018.52 1018.27 1018.28 1018.50 1018.63
1010.60 1011.26 1011.90 1012.62 1013.15 1013.58 1014.20 1014.59 1014.94 1015.26 1015.39 1015.88 1016.28 1016.63 1016.87 1017.04 1017.08 1017.31 1017.69 1017.97 1018.18 1018.18 1018.61 1018.75 1018.94 1019.18 1019.34 1019.15 1019.12 1019.20 1019.39 1019.45 1019.60 1019.06 1018.33 1018.20 1018.20 1018.45 1018.66 1018.57 1018.63 1018.61 1018.63
1009.84 1010.41 1011.01 1011.73 1012.27 1012.94 1013.69 1014.09 1014.34 1014.64 1015.22 1015.70 1015.96 1016.36 1016.75 1016.98 1017.20 1017.42 1017.67 1017.98 1018.24 1018.43 1018.72 1018.79 1019.11 1019.23 1019.30 1019.36 1019.26 1019.22 1018.99 1018.89 1018.94 1019.05 1018.93 1018.68 1018.46 1018.26 1018.44 1018.43 1018.43 1018.44 1018.57
Wind_Speed
6 12 18 18 19 18 15 14 12 9 12 10 12 12 11 12 11 9 10 10 11 11 9 9 8 8 9 10 8 7 7 7 7 9 10 8 8 6 9 7 5 8 10
10 11 15 18 17 16 14 12 10 13 14 14 13 12 12 11 9 10 10 10 10 10 8 8 8 9 10 9 8 6 5 7 7 6 9 7 5 6 7 7 3 9 11
12 11 13 14 14 14 12 12 14 15 14 14 13 12 11 11 9 9 9 9 8 8 8 7 8 9 9 9 8 6 6 5 6 6 7 4 5 5 7 4 8 8 11
11 9 10 12 14 15 14 14 14 15 15 13 13 11 10 10 9 8 8 7 7 6 7 6 7 8 8 7 7 7 6 5 4 5 4 5 5 8 6 7 9 10 10
11 10 11 12 14 15 15 16 15 15 15 13 12 12 10 10 9 7 6 6 5 6 6 6 6 7 6 6 6 6 5 6 4 2 4 3 3 8 5 7 8 9 6
13 12 13 15 16 17 18 16 15 13 13 12 11 11 9 8 7 6 5 4 4 4 4 5 6 7 6 6 5 6 4 2 1 1 2 6 4 8 5 7 7 6 7
13 11 13 13 14 14 15 15 13 13 13 12 11 9 8 7 6 4 3 2 3 3 4 5 6 6 6 7 5 5 6 5 3 3 4 4 5 6 6 5 8 7 6
13 11 12 12 13 14 14 14 12 12 12 11 10 9 8 6 5 4 2 1 1 2 4 6 6 6 5 6 6 5 6 5 2 1 2 4 6 6 7 5 5 8 4
12 11 10 11 13 13 12 13 12 12 11 10 9 8 6 5 3 2 1 3 4 4 6 7 7 6 5 5 5 4 5 3 2 0 3 4 8 8 8 7 6 5 7
10 10 10 10 10 10 11 12 11 10 10 9 7 6 5 4 3 3 4 2 6 7 7 7 7 5 5 6 5 2 3 3 2 1 2 3 7 10 7 9 8 8 7
9 9 10 10 10 9 9 9 9 9 8 7 7 6 6 3 3 4 4 6 8 8 8 8 7 5 4 3 6 6 3 2 2 0 1 5 7 11 9 10 9 9 8
13 11 10 10 10 10 7 7 7 6 5 5 5 5 4 4 4 6 6 7 9 8 8 9 6 4 3 3 3 3 3 4 2 2 2 6 8 10 10 11 11 9 10
12 10 11 10 10 10 7 6 4 4 4 5 6 5 4 4 4 4 4 3 3 3 4 4 4 2 3 3 4 4 4 3 2 1 2 5 9 10 11 11 12 12 11
13 12 11 11 9 9 6 7 6 5 5 5 6 6 4 4 4 4 4 3 3 3 4 4 3 4 3 3 4 5 4 4 3 2 1 6 10 11 12 11 13 13 13
14 13 12 12 11 9 9 6 7 6 7 7 6 7 6 6 5 4 4 4 3 3 3 3 3 4 5 5 3 4 4 4 4 3 3 3 8 12 13 11 11 13 14
14 14 13 14 12 11 10 9 7 7 7 7 7 7 9 7 6 5 5 5 3 3 3 3 3 3 4 5 5 3 5 5 4 5 4 1 4 6 10 12 11 13 16
14 14 15 14 14 13 12 10 8 7 8 7 7 8 9 9 8 8 6 5 4 3 4 4 3 4 4 4 5 4 4 4 5 5 5 4 2 5 4 9 10 11 13
14 15 14 12 14 14 12 10 8 7 7 7 5 6 9 9 9 7 5 4 4 3 4 3 3 4 3 3 3 4 4 5 6 5 5 5 3 5 4 7 8 12 14
15 14 15 15 15 15 13 9 9 7 7 7 7 5 5 7 8 7 5 3 4 4 3 2 2 3 3 4 5 5 4 4 4 3 4 3 4 4 4 4 8 8 13
15 15 14 13 14 12 8 7 6 6 6 6 6 6 7 5 5 6 4 4 5 4 3 1 3 2 4 5 6 6 4 1 3 2 5 5 5 6 5 4 4 3 4
15 15 16 14 14 10 8 8 8 8 7 7 7 9 8 7 6 4 3 5 5 5 1 1 2 3 3 3 5 4 1 1 5 3 4 5 6 6 7 7 4 3 1
18 18 16 16 14 12 10 8 6 5 6 6 6 6 7 7 8 6 6 6 5 4 3 1 2 3 2 3 4 2 2 3 1 3 4 5 6 4 6 7 7 7 5
19 18 16 16 15 13 13 7 5 3 2 4 6 6 7 8 7 6 7 6 6 3 3 2 1 2 3 1 2 3 1 2 4 1 1 3 4 4 4 5 7 8 8
19 18 17 16 15 14 14 11 11 9 9 7 6 5 5 7 7 7 8 7 6 4 4 3 2 1 2 2 1 2 1 2 3 2 1 1 3 4 5 5 5 6 7
20 18 17 16 15 15 14 13 11 12 8 5 4 4 4 4 6 8 8 7 6 5 4 4 4 3 2 2 1 1 2 2 1 2 3 3 1 3 3 3 4 4 5
18 18 18 17 16 15 15 16 15 13 11 7 6 6 5 5 5 6 7 6 6 4 5 5 4 5 3 2 2 3 3 1 1 2 3 5 5 1 3 1 1 1 3
Wind_Direction
72 124 134 126 130 131 135 136 135 156 165 150 146 129 124 111 106 106 97 94 90 85 81 73 70 65 65 61 62 64 84 96 103 105 95 93 92 101 93 99 145 125 118
126 118 120 128 130 132 137 143 143 131 140 141 138 138 120 114 107 99 104 95 88 84 78 71 64 60 56 52 49 51 87 111 109 109 98 111 98 97 97 112 126 92 113
139 136 136 136 139 147 148 142 138 133 133 136 137 127 121 124 115 102 96 85 83 84 76 63 55 51 45 39 34 28 36 76 114 114 105 89 100 99 82 130 117 122 109
146 150 141 140 144 142 149 145 135 137 141 138 130 125 125 124 113 100 91 84 75 75 69 60 48 39 36 36 26 29 35 41 90 113 128 94 94 105 94 99 100 118 113
144 150 142 143 138 141 142 141 145 143 139 134 129 128 130 120 107 100 91 80 73 61 54 45 42 38 23 28 14 30 37 19 64 149 137 122 102 104 115 119 125 118 135
143 150 141 145 142 144 146 145 139 134 129 131 131 133 130 118 112 102 96 87 69 52 44 30 22 20 4 6 5 357 20 57 73 11 184 128 113 111 124 126 119 121 124
140 144 145 144 139 137 135 138 134 131 133 134 133 134 130 123 116 115 100 84 66 34 11 3 6 356 347 335 340 332 325 314 313 66 165 159 140 143 139 136 138 133 163
140 144 142 143 143 137 138 136 138 139 143 141 143 144 141 149 146 140 137 27 359 340 329 338 336 329 322 314 314 328 310 310 305 276 181 181 134 174 162 163 165 159 154
142 145 148 148 143 139 142 143 143 146 149 152 153 151 157 159 157 180 256 291 303 307 314 321 328 334 337 330 335 331 296 289 268 208 171 189 167 191 183 166 162 166 160
150 151 151 149 150 155 152 150 147 149 153 158 155 164 174 194 222 246 277 286 307 314 319 331 328 339 335 323 336 347 329 314 331 349 172 178 184 194 182 171 185 181 189
163 166 165 162 164 164 160 157 156 158 163 165 174 189 202 232 251 273 316 302 303 300 302 304 311 320 346 4 8 359 327 329 285 199 200 149 199 205 206 181 205 195 195
172 176 173 175 172 174 174 174 177 177 184 191 202 212 226 237 252 278 269 280 304 310 308 304 327 327 294 8 18 315 357 360 301 309 280 182 209 213 218 190 200 202 205
179 181 184 181 179 183 178 181 195 191 192 200 216 227 237 261 262 279 296 294 315 313 321 326 337 15 26 0 355 346 348 324 331 298 335 226 214 219 221 205 203 204 216
190 192 190 192 191 195 193 196 195 201 207 214 217 229 236 244 248 268 286 301 280 307 314 313 325 337 342 345 334 339 345 321 327 313 268 237 222 214 225 219 205 210 217
196 197 198 196 199 199 201 202 211 215 215 225 229 228 235 245 252 266 274 267 277 280 287 305 317 318 319 314 307 311 317 315 326 320 308 230 245 224 218 222 217 213 219
201 200 196 199 201 202 209 208 215 217 224 226 231 231 231 243 251 239 263 270 259 248 280 284 296 297 301 300 297 305 314 313 321 314 317 332 245 257 227 218 216 211 221
203 201 202 200 201 206 210 212 218 223 223 228 232 232 234 226 240 251 252 252 270 252 270 273 288 276 287 283 289 298 299 312 312 310 303 299 238 223 248 229 223 216 213
205 202 205 203 202 208 211 212 219 220 229 240 255 245 238 231 232 235 240 239 231 232 248 269 300 284 290 290 290 288 302 307 311 303 285 286 279 273 209 237 249 227 220
205 203 205 204 206 206 212 215 220 225 232 243 245 238 241 229 222 230 233 226 197 216 243 240 266 291 300 295 293 289 300 309 325 337 342 318 302 278 270 192 258 269 234
210 209 208 206 213 213 214 216 221 228 232 236 240 247 250 244 230 211 210 173 197 195 182 204 290 297 313 320 310 310 321 22 24 68 63 30 35 24 6 326 279 231 277
214 211 211 207 210 204 201 209 220 224 228 239 244 252 243 244 234 211 167 166 182 200 153 214 298 311 303 323 306 329 352 158 61 75 75 43 35 23 31 24 19 350 260
211 213 210 213 210 211 210 212 218 211 229 241 239 230 227 228 214 206 181 179 183 157 163 241 295 306 293 11 338 288 349 149 93 72 55 35 38 45 32 35 31 32 27
212 210 210 211 213 214 214 204 180 160 183 206 217 217 215 221 216 201 187 179 173 180 187 179 297 315 315 62 12 323 283 20 324 161 90 48 31 49 55 60 52 45 33
211 208 208 209 211 214 206 207 207 214 221 218 206 206 208 207 197 191 188 179 174 177 172 163 158 256 268 309 169 137 31 334 343 290 147 50 53 46 59 70 84 70 47
209 206 206 206 210 211 204 209 203 218 224 209 181 183 204 184 200 196 189 178 176 187 172 176 168 203 215 279 273 264 202 199 159 290 317 345 28 63 48 37 33 32 47
207 206 203 202 208 205 206 208 207 210 210 200 186 189 192 186 180 186 183 182 184 185 187 179 190 206 207 233 255 256 253 278 291 279 264 293 318 320 330 274 263 10 10